Regional Weather Roundup
Issued by NWS

Home | Current Version | Previous Version | Text Only | Print | Product List | Glossary Off
Versions: 1 2 3 4 5 6 7 8 9 10 11 12 13 14 15 16 17 18 19 20 21 22 23 24 25 26 27 28 29 30 31 32 33 34 35 36 37 38 39 40 41 42 43 44 45 46 47 48 49 50

000
ASUS45 KTFX 270510
RWRMT
MONTANA REGIONAL WEATHER ROUNDUP
NATIONAL WEATHER SERVICE GREAT FALLS MT
1100 PM MDT WED APR 26 2017

NOTE: "FAIR" INDICATES FEW OR NO CLOUDS BELOW 12000 FEET WITH NO
SIGNIFICANT WEATHER AND/OR OBSTRUCTIONS TO VISIBILITY.

MTZ001>007-043-270600-
WEST OF THE DIVIDE

CITY           SKY/WX    TMP DP  RH WIND       PRES   REMARKS
KALISPELL      LGT RAIN  42  41  96 S6        29.65S
MISSOULA       CLOUDY    43  37  79 N10       29.71R
BUTTE          CLOUDY    37  31  78 NW7       29.63S WCI  32
MULLAN PASS    LGT SNOW  29  29 100 SW9       29.66F VSB 3/4 WCI  20
ANACONDA         N/A     37  34  87 N7        29.64S
DEER LODGE       N/A     37  34  87 NW12      29.67R WCI  30
EUREKA           N/A     46  36  66 SE8       29.62F
HAMILTON         N/A     43  30  61 N5        29.69S
LIBBY            N/A     43  39  87 CALM      29.65R
PLAINS           N/A     43  34  70 CALM      29.72
THOMPSON FALLS   N/A     42  38  86 W2        29.78R
$$

MTZ008-052>055-270600-
SOUTHWEST MONTANA

CITY           SKY/WX    TMP DP  RH WIND       PRES   REMARKS
BOZEMAN        CLOUDY    39  36  89 SE7       29.63F
DILLON         CLOUDY    40  32  73 S12       29.59F
W YELLOWSTONE  FOG       32  32 100 CALM      29.63F VSB 3/4
THREE FORKS      N/A     40  40 100 CALM      29.66F
TWIN BRIDGES     N/A     41  31  68 NW2       29.65
$$

MTZ009-010-012-014-046-048-049-054-270600-
EAST SLOPES AND CENTRAL MONTANA

CITY           SKY/WX    TMP DP  RH WIND       PRES   REMARKS
CUT BANK       LGT RAIN  40  38  93 E8        29.59F
GREAT FALLS    CLOUDY    42  39  89 CALM      29.61F
MALMSTROM AFB  CLOUDY    40  39  96 NE3       29.62S
HELENA         CLOUDY    43  39  86 W5        29.61S
AUGUSTA        MOCLDY    38  37  96 CALM      29.60S
BOWMANS CRNR   MOCLDY    39  36  89 CALM      29.59S
CHOTEAU          N/A     39  37  93 S3        29.62S
FAIRFIELD      MOCLDY    40  37  89 SE6       29.59F
POWER          MOCLDY    38  37  94 S7        29.60F
RAYNESFORD     MOCLDY    40  37  87 CALM      29.61F
ULM            MOCLDY    41  39  92 SE8       29.61F
$$

MTZ011-013-016-021-045-047-050-051-270600-
NORTH CENTRAL MONTANA

CITY           SKY/WX    TMP DP  RH WIND       PRES   REMARKS
HAVRE          CLOUDY    44  39  82 NE6       29.60F
LEWISTOWN      CLOUDY    38  36  92 S3        29.61S
N BAR RANCH    CLOUDY    37  36  93 CALM      29.63F
CHINOOK          N/A     45  34  65 E12       29.61F
DENTON         MOCLDY    41  38  90 MISG      29.57F
FORT BENTON      N/A     43  39  87 MISG      29.62F
GEYSER         LGT RAIN  39  37  91 W6        29.61F
GRASS RANGE    MOCLDY    39  37  92 SW6       29.58F
JUDITH GAP     DRIZZLE   37  36  94 W10       29.60F WCI  30
STANFORD       LGT RAIN  37  35  93 W13       29.61S WCI  29
WINIFRED       MOCLDY    40  38  91 SE5       29.60F
$$

MTZ017>020-022>027-061-062-270600-
NORTHEAST MONTANA

CITY           SKY/WX    TMP DP  RH WIND       PRES   REMARKS
GLASGOW        PTCLDY    38  24  57 E14       29.69F WCI  30
JORDAN           N/A     38  30  73 E8        29.66F
SIDNEY         CLEAR     36  21  54 NE3       29.75F
WOLF POINT     CLEAR     35  23  61 E8        29.72  WCI  29
PLENTYWOOD       N/A     36  19  51 E13       29.76F WCI  27
POPLAR           N/A     37  21  52 E9        29.74S WCI  31
SCOBEY           N/A     33  16  50 E7        29.73  WCI  27
$$

MTZ028>42-056>058-270600-
SOUTHCENTRAL AND SOUTHEAST MONTANA

CITY           SKY/WX    TMP DP  RH WIND       PRES   REMARKS
BAKER          CLEAR     30  25  81 SE6       29.71F WCI  24
BILLINGS       CLOUDY    42  39  89 SW8       29.61F
LIVINGSTON     LGT RAIN  39  37  92 W8        29.63F
MILES CITY     CLEAR     39  29  67 E5        29.67F
BIG TIMBER     CLOUDY    39  37  93 W5        29.65F
EKALAKA          N/A     32  24  72 SE5       29.69
LAUREL           N/A     40  32  73 SW1       29.64R
ROUNDUP          N/A     43  38  82 CALM      29.57F
$$

REGIONAL REPORTS...DAKOTAS

CITY           SKY/WX    TMP DP  RH WIND       PRES   REMARKS
WILLISTON      CLEAR     36  21  54 NE8       29.77F WCI  30
MINOT          CLEAR     30  25  81 E3        29.79S
DICKINSON      CLEAR     28  20  71 E8        29.72S WCI  20
BEACH            N/A     28  21  74 E8        29.75S WCI  20
TIOGA            N/A     27  25  93 E10       29.79F WCI  17
WATFORD CITY     N/A     30  21  69 E3        29.76S
BISMARCK       CLOUDY    36  29  75 NE5       29.78S
GRAND FORKS    LGT SNOW  31  29  92 N16       29.76F FOG     WCI  20
FARGO          LGT SNOW  29  27  92 N16       29.70F FOG     WCI  17
BUFFALO SD       N/A     35  25  66 NE6       29.64F WCI  30
RAPID CITY     CLEAR     31  27  85 W7        29.71F WCI  24
$$

REGIONAL REPORTS...WYOMING/IDAHO/WASHINGTON

CITY           SKY/WX    TMP DP  RH WIND       PRES   REMARKS
GILLETTE       CLEAR     28  28 100 CALM      29.64F
SHERIDAN       CLEAR     31  27  85 CALM      29.63F
BUFFALO WY     CLEAR     36  27  69 S7        29.64F WCI  30
CODY           CLOUDY    39  37  92 NE8       29.63F
YELLOWSTONE LA   N/A     28  28 100 CALM      29.64F
IDAHO FALLS    CLOUDY    42  40  92 S13       29.65F
SALMON         CLOUDY    39  34  81 CALM      29.69S
BOISE          PTCLDY    45  39  79 NW13      29.81R
SPOKANE        MOCLDY    43  39  86 SE6       29.71S
$$

REGIONAL REPORTS...ALBERTA

CITY           SKY/WX    TMP DP  RH WIND       PRES   REMARKS
EDMONTON       CLOUDY    34  30  86 E8        29.74S WCI  27
CALGARY        FLURRIES  36  32  87 E7        29.66S WCI  30
LETHBRIDGE     CLOUDY    41  37  87 NE9       29.61F
MEDICINE HAT   MOCLDY    41  39  93 E7        29.64F
CARDSTON         N/A     37  36  93 S3          N/A
MILK RIVER       N/A     41  39  93 NE7         N/A
$$

REGIONAL REPORTS...SASKATCHEWAN

CITY           SKY/WX    TMP DP  RH WIND       PRES   REMARKS
SWIFT CURRENT  PTCLDY    39  27  60 SE21G28   29.65S WCI  29
REGINA         PTCLDY    36  21  55 E16       29.79F WCI  26
SASKATOON      MOCLDY    36  21  55 E10       29.83S WCI  28
CYPRESS HILLS    N/A     36  34  93 S7          N/A  WCI  30
VAL MARIE        N/A     36  27  69 E9          N/A  WCI  29
ASSINIBOIA       N/A     34  34 100 E8          N/A  WCI  27
$$



USA.gov is the U.S. government's official web portal to all federal, state and local government web resources and services.